Wind_Speed
14 15 15 14 12 12 13 13 12 12 11 11 11 12 12 12 12 12 12 11 10 11 12 12 13 14 15 15 15 15 15 15 15 17 19 17 15 15 14 15 18 19 18
20 16 15 15 13 12 12 12 11 11 10 10 10 10 10 11 11 11 11 10 11 11 11 11 13 13 14 14 14 14 14 15 15 18 18 16 15 14 15 16 19 20 20
19 17 15 14 13 12 12 11 10 10 10 9 8 9 9 8 9 10 11 10 11 11 11 12 13 13 13 12 13 13 14 14 14 16 16 13 12 14 15 16 18 21 20
19 17 15 14 13 12 11 11 10 9 9 9 8 9 8 7 8 9 10 9 9 10 11 13 12 12 12 12 12 13 14 14 14 12 13 13 14 12 14 14 17 18 18
17 15 14 12 11 11 10 10 10 9 9 9 9 9 8 8 8 8 8 9 8 10 9 11 11 11 10 9 11 12 13 12 11 9 10 9 12 11 12 13 14 15 18
16 14 12 11 11 10 9 9 9 9 9 8 9 9 9 9 8 8 8 8 8 8 8 9 11 9 7 7 11 11 10 8 4 6 10 8 10 12 13 12 14 16 16
17 14 11 10 10 9 9 9 10 9 9 9 9 9 10 10 9 9 8 9 8 8 8 9 10 7 6 7 11 13 9 6 7 10 10 6 12 13 14 14 15 16 16
18 15 11 8 7 8 8 8 9 10 10 10 9 10 10 11 11 11 10 10 10 9 8 9 9 7 6 7 10 12 12 7 5 11 9 9 9 13 15 13 16 16 14
15 13 9 7 7 6 6 6 8 8 9 10 11 10 11 11 12 12 12 12 12 11 10 9 8 7 7 8 9 11 11 9 4 10 8 8 8 14 16 14 13 13 12
15 11 8 7 7 7 7 6 5 5 8 9 10 11 12 12 12 13 13 13 14 13 12 11 10 8 8 9 9 10 10 11 8 8 8 8 12 13 14 12 9 10 11
15 12 10 10 9 9 8 7 5 5 6 7 10 11 12 13 13 13 14 15 15 15 14 13 12 11 10 10 9 10 10 10 10 8 7 10 12 12 12 12 11 9 8
13 13 11 11 10 10 10 10 7 6 6 5 7 10 13 12 13 14 14 15 16 16 15 15 13 13 12 13 12 11 11 12 13 10 9 13 12 11 9 10 9 8 8
15 14 14 13 13 13 11 10 10 9 9 7 8 8 8 11 13 13 15 16 16 17 17 16 15 16 15 15 15 14 12 13 15 13 14 14 12 12 10 9 10 9 8
19 18 18 17 16 13 13 14 13 12 10 11 9 8 9 10 15 15 16 16 17 19 19 19 19 18 18 17 17 17 16 15 17 16 16 16 13 12 10 8 9 10 10
21 19 19 18 18 16 15 15 14 13 13 11 10 9 9 11 10 12 22 19 21 21 21 20 21 21 21 20 19 20 19 19 19 19 17 19 19 13 12 11 11 11 12
21 20 20 20 20 19 18 16 15 14 13 13 13 13 13 11 12 11 12 13 13 15 19 20 22 23 24 23 22 23 21 20 18 20 22 17 24 20 16 14 13 13 14
23 22 23 24 22 21 19 17 16 15 14 14 14 14 14 14 14 13 15 15 14 15 16 17 20 22 24 24 26 25 25 21 20 20 21 20 23 25 20 16 15 16 16
24 26 23 22 23 21 20 19 17 16 15 15 15 15 16 15 16 17 15 14 14 16 14 15 15 20 24 26 27 28 28 27 26 23 23 22 23 27 23 19 17 18 20
24 26 26 23 24 22 20 18 18 17 16 16 16 16 16 16 16 17 16 13 13 13 13 15 14 15 18 23 27 28 28 28 26 27 24 24 27 28 25 21 19 20 20
29 23 26 25 23 22 19 18 17 17 17 17 17 17 16 17 17 17 17 16 15 15 15 15 16 16 15 16 19 23 28 29 29 25 22 24 27 30 26 23 20 22 22
49 39 28 19 20 22 20 18 18 19 18 19 18 17 17 17 17 18 18 15 14 14 13 12 13 11 16 16 18 15 22 24 27 24 25 23 26 28 27 24 22 25 23
43 46 43 34 22 13 15 17 15 13 16 19 17 18 19 19 19 18 17 17 15 14 13 13 12 12 11 18 7 5 3 8 19 28 22 26 30 32 32 30 28 27 26
43 43 41 41 34 23 21 15 14 15 15 17 16 19 20 20 21 20 18 17 17 16 15 14 14 16 13 12 16 10 1 4 2 13 29 28 27 30 34 34 30 28 28
37 36 38 43 39 37 29 26 20 18 17 16 13 15 15 18 22 23 23 22 21 20 19 18 16 15 16 17 15 18 21 3 3 2 9 21 33 30 30 35 34 31 28
34 35 34 38 42 44 36 34 34 18 16 17 15 16 14 15 18 19 20 21 21 21 20 20 19 17 17 17 19 14 15 18 12 4 3 5 24 32 33 36 36 35 32
31 33 33 39 38 43 43 39 37 34 22 15 15 16 17 16 15 20 20 20 21 20 20 20 21 22 21 18 19 19 21 13 9 9 4 6 9 15 33 36 35 36 36
Wind_Direction
150 150 151 147 136 136 137 139 135 131 126 118 117 118 119 122 124 123 123 121 119 112 110 107 105 106 106 105 105 105 108 116 118 114 111 107 107 113 113 125 123 116 112
148 150 153 149 140 136 142 145 144 139 136 129 123 124 124 124 124 126 128 122 121 123 119 114 111 110 111 111 113 112 110 112 119 121 117 115 112 121 113 122 127 115 111
147 148 148 151 150 141 139 143 150 149 147 146 139 135 130 132 132 129 130 132 130 133 130 129 119 118 118 117 116 116 114 112 111 117 117 115 126 126 118 115 120 116 111
148 150 148 146 149 152 149 146 146 156 157 158 153 152 153 149 145 139 136 141 140 144 139 131 132 128 122 120 123 122 123 122 117 117 126 115 126 127 138 119 117 113 113
142 150 152 155 155 153 153 156 156 158 163 166 166 168 171 171 164 157 150 143 157 155 152 151 147 137 128 129 131 132 128 129 134 120 130 143 143 139 139 135 129 123 120
139 146 149 157 158 162 167 166 165 169 172 175 178 179 181 186 179 173 172 162 163 167 162 162 157 152 146 148 148 149 142 136 121 215 184 162 172 159 154 150 141 132 128
142 142 143 149 156 162 169 172 175 178 181 184 190 194 194 195 200 195 190 188 185 183 177 172 172 177 176 164 161 157 149 141 103 130 146 154 183 174 167 162 147 144 134
143 143 135 135 155 171 177 178 182 186 190 192 193 199 208 212 210 208 205 203 200 195 191 187 189 191 189 175 168 166 171 165 128 157 155 143 147 146 162 146 143 140 138
149 147 144 144 148 154 168 185 194 195 195 200 204 204 210 216 217 212 210 209 209 208 205 201 199 199 190 181 176 175 182 183 168 169 178 171 173 141 136 137 141 139 134
159 165 162 164 166 168 175 174 186 203 213 216 214 211 212 213 217 219 217 216 214 216 215 212 205 208 199 189 183 181 187 184 192 186 199 200 182 161 152 152 157 145 145
173 174 175 188 191 197 202 195 205 223 218 222 223 222 220 218 217 219 219 221 221 220 218 215 215 214 210 200 192 184 192 189 189 184 203 180 179 167 162 161 158 162 163
191 192 196 203 205 211 212 209 220 224 213 233 223 221 224 227 227 224 222 223 226 225 223 219 220 216 215 209 199 193 194 194 191 200 206 194 185 186 179 179 172 182 189
223 221 224 222 223 225 219 220 226 238 229 229 228 226 224 228 230 229 226 222 223 225 224 222 224 221 219 216 213 209 205 203 199 206 205 199 210 200 199 197 198 201 202
235 240 235 231 227 231 235 239 238 240 237 237 235 228 223 226 232 230 224 226 226 222 223 224 225 226 226 225 223 221 217 214 210 212 210 208 217 224 213 213 218 214 213
237 239 233 225 228 238 248 241 239 238 239 235 229 231 228 229 232 237 231 239 233 232 229 227 230 228 230 230 230 229 228 228 225 222 221 225 217 233 225 230 232 226 215
235 235 228 225 234 244 248 240 237 240 241 242 242 239 242 241 225 217 210 219 226 236 239 240 234 233 232 233 234 232 233 234 236 235 233 239 228 223 227 229 226 231 217
236 240 236 240 239 243 238 237 236 242 243 246 247 242 242 243 247 239 232 232 233 237 244 251 248 243 241 238 238 238 236 237 241 248 239 241 225 218 223 225 235 231 222
240 237 236 235 229 233 233 232 234 240 246 251 252 250 243 243 247 248 244 236 233 232 234 244 249 249 241 239 239 239 240 242 243 250 248 241 224 212 216 223 233 233 228
247 239 233 228 226 230 232 233 236 239 244 250 251 253 249 241 235 243 244 236 231 236 239 241 242 247 249 244 243 246 243 240 240 242 250 238 218 214 217 222 235 235 228
12 311 248 228 226 222 223 232 237 240 246 250 251 252 246 241 234 232 239 243 244 245 249 246 246 242 251 256 258 260 251 243 236 233 234 225 223 223 220 222 232 236 230
22 28 19 318 227 211 214 219 228 237 248 254 253 251 244 239 234 229 236 238 239 243 248 251 246 254 245 242 256 263 259 253 248 237 232 229 223 220 222 226 239 236 231
15 14 14 15 358 278 237 236 239 253 258 259 256 250 242 238 236 232 228 239 237 237 242 238 239 243 248 240 229 224 257 247 249 241 237 230 229 230 227 231 225 233 229
15 10 6 6 8 8 330 269 262 260 263 265 261 255 245 240 238 239 236 230 234 235 235 240 241 238 242 243 235 233 150 238 237 237 237 232 232 233 235 229 226 228 228
5 4 6 7 7 3 7 346 275 262 263 272 270 272 269 254 246 245 243 239 237 239 241 243 241 241 242 242 242 243 247 239 198 266 246 232 231 230 230 230 226 227 226
4 360 359 2 6 1 358 357 352 269 268 287 280 270 272 263 250 247 244 238 233 236 240 244 244 241 240 245 244 233 240 248 237 206 254 253 230 226 230 228 229 226 229
2 360 358 360 2 358 355 349 347 349 300 272 272 278 279 273 267 250 243 238 240 242 240 244 248 249 245 244 246 248 240 232 222 229 231 258 232 239 231 228 229 228 229
Height
808 809 810 811 812 813 814 815 816 816 817 818 819 820 821 822 823 824 825 825 826 827 828 828 829 830 830 831 831 832 832 833 834 834 835 837 838 838 838 839 840 841 842
806 809 811 812 813 814 815 816 817 818 818 819 820 821 823 824 825 825 826 827 828 828 829 830 831 831 832 833 833 834 835 836 836 836 837 838 840 840 840 841 841 843 844
807 809 811 812 814 815 816 817 818 819 819 820 821 822 823 825 826 826 827 828 829 830 830 831 832 832 834 834 835 835 837 838 838 839 840 840 841 842 842 843 844 845 846
807 810 811 813 814 815 816 817 818 820 821 821 822 823 824 825 827 828 828 829 830 830 831 832 833 834 834 835 837 837 838 839 841 841 842 843 844 844 844 845 846 847 848
808 810 812 814 815 816 817 818 819 820 821 823 823 824 825 826 827 828 829 830 831 831 832 832 834 834 836 837 838 839 840 841 842 843 844 844 845 846 846 847 848 849 850
808 811 812 814 815 816 817 818 819 820 821 822 823 824 825 827 827 828 829 830 831 831 832 833 834 835 836 837 839 840 841 842 843 842 843 845 846 847 848 848 848 850 852
809 811 813 814 815 816 817 818 819 820 822 822 824 824 825 826 827 828 829 830 831 832 833 834 834 836 837 837 839 840 842 843 842 842 843 844 845 846 848 849 850 851 852
808 811 813 814 815 816 817 818 819 819 821 822 823 824 825 826 827 828 829 830 831 832 833 833 834 835 836 837 838 840 841 842 843 843 845 846 846 844 847 849 851 852 854
810 812 813 814 816 816 817 818 819 819 820 821 822 823 824 824 826 827 828 829 830 831 832 833 834 835 836 837 838 840 841 842 843 843 844 846 846 847 848 851 852 853 854
811 812 813 814 816 816 817 817 818 818 819 820 820 821 822 823 824 825 826 828 829 830 831 832 833 835 836 837 838 839 840 842 843 844 845 846 846 848 848 850 852 853 855
810 811 812 814 815 816 816 817 818 818 818 818 818 819 820 821 822 824 825 826 827 828 830 831 832 834 835 837 838 839 840 841 842 844 845 846 847 847 848 850 851 853 854
808 809 811 812 814 815 816 816 816 817 817 817 817 818 819 820 821 822 823 824 826 827 829 830 831 833 834 836 837 838 839 840 842 843 844 846 847 848 849 850 851 852 854
807 808 809 811 812 813 814 815 815 816 816 816 816 817 817 818 819 820 821 822 824 826 827 829 830 831 832 834 836 837 838 839 841 842 843 845 846 847 848 849 851 852 852
804 806 807 808 809 811 812 813 814 814 815 815 816 816 816 816 817 818 819 820 821 823 824 826 828 829 831 832 834 835 837 838 839 840 842 844 845 847 848 849 849 850 851
801 803 804 806 807 808 809 810 811 812 813 814 815 815 814 814 815 814 816 818 819 820 822 823 825 826 828 830 831 833 833 835 837 839 840 842 843 845 846 847 848 849 849
799 800 802 803 805 805 806 807 809 810 811 811 812 813 813 813 812 813 814 815 816 817 819 820 822 823 825 827 828 830 831 832 833 835 837 838 840 842 843 845 846 846 847
795 797 798 800 802 803 804 805 806 808 809 809 810 810 811 811 811 811 811 812 813 815 816 817 819 820 822 823 824 826 828 829 830 832 833 835 836 839 840 842 843 844 845
792 792 794 795 797 799 800 801 803 805 806 807 808 808 808 809 809 809 809 809 810 811 813 814 815 817 818 819 820 822 824 826 827 828 829 830 832 834 837 838 839 841 842
788 787 789 791 793 796 798 799 800 801 802 803 804 805 806 806 806 807 807 808 808 809 810 811 813 814 814 816 817 818 820 821 823 825 825 826 828 831 832 834 836 837 838
792 793 789 788 790 792 795 797 799 799 799 800 800 801 803 804 804 804 805 806 806 807 808 808 809 811 812 813 814 815 815 817 819 821 822 823 825 827 829 831 833 834 835
797 794 796 799 791 791 792 793 794 795 796 797 798 799 800 801 801 802 802 803 804 804 806 807 807 808 809 811 813 813 812 813 814 816 818 819 820 823 826 827 830 832 832
812 806 801 800 801 800 795 794 794 794 793 793 794 795 796 798 798 798 799 800 800 801 803 804 805 806 806 809 810 811 811 810 809 812 813 815 816 819 820 823 825 827 829
819 816 813 809 805 801 800 795 793 793 792 790 790 791 792 794 795 796 795 796 797 798 800 801 802 803 804 806 807 808 810 808 807 805 807 809 812 813 815 819 821 823 824
829 826 821 815 810 804 799 797 794 792 791 790 789 789 789 790 791 792 792 793 794 795 796 798 799 800 801 802 804 805 805 806 807 806 804 803 806 808 810 813 815 817 819
835 829 825 820 812 806 802 799 795 790 789 787 787 786 785 785 787 789 789 789 790 791 792 794 795 796 797 798 799 800 802 803 803 803 803 802 802 802 805 807 809 811 813
840 835 827 819 814 811 806 802 798 792 787 784 783 783 782 782 782 784 785 786 786 787 788 790 791 792 792 793 794 795 796 797 799 801 801 800 799 799 800 802 803 805 808